Location: Amsterdam
(30.7274°N, 84.4357°W)
Time: 11:57:51
(UTC+00:00)

Courier 1B Rocket - Pass Details

Date: 14 February 2026
Orbit: 920 x 1201 km, 28.2° (Epoch: 17 March)

Event Time Altitude Azimuth Distance (km) Brightness Sun altitude
Rises 02:16:33 0° 245° (WSW) 3,582 8.7 -37.6°
Reaches altitude 10° 02:19:10 10° 240° (WSW) 2,663 7.8 -38.1°
Enters shadow 02:21:52 26° 230° (SW) 1,795 6.6 -38.7°
Maximum altitude 02:25:24 54° 165° (SSE) 1,187 - -39.4°
Drops below altitude 10° 02:32:05 10° 90° (E) 2,845 - -40.9°
Sets 02:34:57 0° 86° (E) 3,845 - -41.5°
